Вернуться в каталог

SOLRAD 3/INJUN 1

АктивенНаукаLEO
NORAD 117·PAYLOAD·🇺🇸 United States

Запущен Jun 29, 1961 с Cape Canaveral Space Force Station

Loading…

Ближайшие Пролёты (ближайшие 24 часа)

TLE

СвежийSource: Space-Track

Эпоха: Sep 14, 2026, 22:40 UTC

1 00117U 61015B   26257.94448211 -.00000016  00000-0  47520-4 0  9997
2 00117  66.8121 146.3172 0083357 237.6917 121.6070 13.90198462306537

Отслеживайте SOLRAD 3/INJUN 1 в реальном времени с AllMySat

Download on the App Store